Change the Weather History Date:

Saturday, March 16, 2013

  Actual Average Record
Temperature  
Mean Temperature 68 °F -  
Max Temperature 80 °F 66 °F 80 °F (2012)
Min Temperature 55 °F 45 °F 33 °F (1999)
Cooling Degree Days 2    
Growing Degree Days 18 (Base 50)    
Moisture  
Dew Point 54 °F    
Average Humidity 66    
Maximum Humidity 94    
Minimum Humidity 37    
Precipitation  
Precipitation 0.00 in - - ()
Sea Level Pressure  
Sea Level Pressure 29.92 in    
Wind  
Wind Speed 11 mph (South)    
Max Wind Speed 22 mph    
Max Gust Speed 26 mph    
Visibility 10 miles    
Events      
Averages and records for this station are not official NWS values.
T = Trace of Precipitation, MM = Missing Value Source: NWS Daily Summary

Daily Weather History Graph

Daily Weather History Graph

Search for Another Location

Airport or City:

Trip Planner

Search our weather history database for the weather conditions in past years. The results will help you decide how hot, cold, wet, or windy it might be!

Date:

Astronomy

Mar. 16, 2013 Rise Set
Actual Time 7:27 AM CDT 7:27 PM CDT
Civil Twilight 7:03 AM CDT 7:52 PM CDT
Nautical Twilight 6:34 AM CDT 8:20 PM CDT
Astronomical Twilight 6:06 AM CDT 8:48 PM CDT
Moon 10:16 AM CDT (3/16) No Moon Set
Length of Visible Light 12h 49m
Length of Day
12h 00m
Waxing Crescent, 23% of the Moon is Illuminated
Mar 16
Waxing Crescent
Mar 19
First Quarter
Mar 27
Full
Apr 2
Last Quarter
Apr 10
New

Hourly Weather History & Observations

Time (CDT) Temp. Heat Index Dew Point Humidity Pressure Visibility Wind Dir Wind Speed Gust Speed Precip Events Conditions
12:55 AM 60.8 °F - 51.8 °F 72% 30.01 in 10.0 mi South 11.5 mph 18.4 mph N/A   Clear
1:15 AM 59.0 °F - 51.8 °F 77% 30.01 in 10.0 mi SSW 12.7 mph - N/A   Clear
1:35 AM 59.0 °F - 51.8 °F 77% 30.01 in 10.0 mi South 9.2 mph - N/A   Clear
1:55 AM 59.0 °F - 51.8 °F 77% 30.01 in 10.0 mi South 10.4 mph - N/A   Clear
2:15 AM 57.2 °F - 53.6 °F 88% 30.00 in 10.0 mi South 10.4 mph - N/A   Clear
2:35 AM 57.2 °F - 53.6 °F 88% 30.00 in 10.0 mi South 10.4 mph - N/A   Clear
2:55 AM 57.2 °F - 53.6 °F 88% 29.99 in 10.0 mi South 9.2 mph - N/A   Clear
3:15 AM 57.2 °F - 51.8 °F 82% 29.99 in 10.0 mi South 9.2 mph - N/A   Clear
3:35 AM 57.2 °F - 51.8 °F 82% 29.98 in 10.0 mi South 9.2 mph - N/A   Clear
3:55 AM 57.2 °F - 51.8 °F 82% 29.98 in 10.0 mi SSW 5.8 mph - N/A   Clear
4:15 AM 57.2 °F - 51.8 °F 82% 29.97 in 10.0 mi SSW 9.2 mph - N/A   Clear
4:35 AM 57.2 °F - 51.8 °F 82% 29.97 in 10.0 mi South 8.1 mph - N/A   Clear
4:55 AM 55.4 °F - 51.8 °F 88% 29.97 in 10.0 mi South 6.9 mph - N/A   Clear
5:15 AM 57.2 °F - 51.8 °F 82% 29.96 in 10.0 mi South 6.9 mph - N/A   Clear
5:35 AM 55.4 °F - 51.8 °F 88% 29.96 in 10.0 mi South 8.1 mph - N/A   Clear
5:55 AM 55.4 °F - 51.8 °F 88% 29.97 in 10.0 mi SSW 6.9 mph - N/A   Clear
6:15 AM 55.4 °F - 51.8 °F 88% 29.97 in 10.0 mi South 6.9 mph - N/A   Clear
6:35 AM 55.4 °F - 51.8 °F 88% 29.97 in 10.0 mi South 5.8 mph - N/A   Clear
6:55 AM 55.4 °F - 51.8 °F 88% 29.97 in 10.0 mi South 5.8 mph - N/A   Mostly Cloudy
7:15 AM 55.4 °F - 53.6 °F 94% 29.97 in 10.0 mi South 6.9 mph - N/A   Overcast
7:35 AM 55.4 °F - 53.6 °F 94% 29.98 in 10.0 mi South 6.9 mph - N/A   Overcast
7:55 AM 55.4 °F - 53.6 °F 94% 29.97 in 10.0 mi South 8.1 mph - N/A   Mostly Cloudy
8:15 AM 55.4 °F - 53.6 °F 94% 29.98 in 10.0 mi South 6.9 mph - N/A   Scattered Clouds
8:35 AM 57.2 °F - 53.6 °F 88% 29.98 in 10.0 mi South 9.2 mph - N/A   Scattered Clouds
8:55 AM 57.2 °F - 53.6 °F 88% 29.98 in 10.0 mi SSW 10.4 mph - N/A   Mostly Cloudy
9:15 AM 60.8 °F - 55.4 °F 82% 29.99 in 10.0 mi SSW 11.5 mph 18.4 mph N/A   Mostly Cloudy
9:35 AM 62.6 °F - 55.4 °F 77% 29.99 in 10.0 mi SSW 12.7 mph - N/A   Mostly Cloudy
9:55 AM 64.4 °F - 55.4 °F 73% 29.98 in 10.0 mi SSW 15.0 mph 20.7 mph N/A   Scattered Clouds
10:15 AM 66.2 °F - 55.4 °F 68% 29.98 in 10.0 mi SSW 17.3 mph - N/A   Scattered Clouds
10:35 AM 66.2 °F - 55.4 °F 68% 29.97 in 10.0 mi SSW 17.3 mph 25.3 mph N/A   Partly Cloudy
10:55 AM 69.8 °F - 55.4 °F 60% 29.97 in 10.0 mi SW 12.7 mph 17.3 mph N/A   Clear
11:15 AM 69.8 °F - 55.4 °F 60% 29.97 in 10.0 mi SSW 18.4 mph 24.2 mph N/A   Clear
11:35 AM 71.6 °F - 53.6 °F 53% 29.96 in 10.0 mi SSW 16.1 mph 23.0 mph N/A   Clear
11:55 AM 73.4 °F - 53.6 °F 50% 29.96 in 10.0 mi SSW 17.3 mph 25.3 mph N/A   Clear
12:15 PM 73.4 °F - 53.6 °F 50% 29.96 in 10.0 mi SSW 17.3 mph 23.0 mph N/A   Clear
12:35 PM 73.4 °F - 53.6 °F 50% 29.96 in 10.0 mi SSW 21.9 mph 25.3 mph N/A   Clear
12:55 PM 75.2 °F - 53.6 °F 47% 29.95 in 10.0 mi South 16.1 mph 19.6 mph N/A   Clear
1:15 PM 75.2 °F - 53.6 °F 47% 29.94 in 10.0 mi SSW 10.4 mph - N/A   Clear
1:35 PM 75.2 °F - 53.6 °F 47% 29.93 in 10.0 mi SSW 16.1 mph 21.9 mph N/A   Clear
1:55 PM 77.0 °F - 53.6 °F 44% 29.92 in 10.0 mi SW 12.7 mph 21.9 mph N/A   Clear
2:15 PM 77.0 °F - 53.6 °F 44% 29.90 in 10.0 mi SSW 13.8 mph 21.9 mph N/A   Partly Cloudy
2:35 PM 77.0 °F - 53.6 °F 44% 29.89 in 10.0 mi SSW 15.0 mph 26.5 mph N/A   Clear
2:55 PM 78.8 °F - 53.6 °F 42% 29.87 in 10.0 mi South 18.4 mph 23.0 mph N/A   Clear
3:15 PM 78.8 °F - 53.6 °F 42% 29.86 in 10.0 mi SSW 12.7 mph 21.9 mph N/A   Clear
3:35 PM 78.8 °F - 53.6 °F 42% 29.85 in 10.0 mi SSW 13.8 mph 20.7 mph N/A   Clear
3:55 PM 78.8 °F - 53.6 °F 42% 29.84 in 10.0 mi South 13.8 mph 20.7 mph N/A   Clear
4:15 PM 80.6 °F - 51.8 °F 37% 29.84 in 10.0 mi SSW 11.5 mph 20.7 mph N/A   Clear
4:35 PM 80.6 °F - 51.8 °F 37% 29.83 in 10.0 mi South 17.3 mph 23.0 mph N/A   Clear
4:55 PM 80.6 °F - 51.8 °F 37% 29.82 in 10.0 mi South 15.0 mph - N/A   Clear
5:15 PM 80.6 °F 80.3 °F 53.6 °F 39% 29.82 in 10.0 mi South 15.0 mph 18.4 mph N/A   Clear
5:35 PM 78.8 °F - 51.8 °F 39% 29.81 in 10.0 mi South 12.7 mph 23.0 mph N/A   Clear
5:55 PM 78.8 °F - 51.8 °F 39% 29.81 in 10.0 mi South 13.8 mph 23.0 mph N/A   Clear
6:15 PM 78.8 °F - 53.6 °F 42% 29.81 in 10.0 mi South 12.7 mph - N/A   Clear
6:35 PM 77.0 °F - 51.8 °F 41% 29.80 in 10.0 mi South 11.5 mph - N/A   Clear
6:55 PM 75.2 °F - 53.6 °F 47% 29.80 in 10.0 mi South 15.0 mph 20.7 mph N/A   Clear
7:15 PM 73.4 °F - 53.6 °F 50% 29.81 in 10.0 mi South 15.0 mph 20.7 mph N/A   Clear
7:35 PM 73.4 °F - 55.4 °F 53% 29.81 in 10.0 mi South 11.5 mph 20.7 mph N/A   Clear
7:55 PM 71.6 °F - 55.4 °F 57% 29.82 in 10.0 mi South 13.8 mph 19.6 mph N/A   Clear
8:15 PM 71.6 °F - 55.4 °F 57% 29.83 in 10.0 mi South 13.8 mph 21.9 mph N/A   Clear
8:35 PM 69.8 °F - 55.4 °F 60% 29.83 in 10.0 mi South 13.8 mph 20.7 mph N/A   Clear
8:55 PM 69.8 °F - 55.4 °F 60% 29.84 in 10.0 mi South 13.8 mph 20.7 mph N/A   Clear
9:15 PM 68.0 °F - 55.4 °F 64% 29.85 in 10.0 mi South 12.7 mph 23.0 mph N/A   Clear
9:35 PM 66.2 °F - 55.4 °F 68% 29.85 in 10.0 mi South 16.1 mph 20.7 mph N/A   Clear
9:55 PM 66.2 °F - 55.4 °F 68% 29.86 in 10.0 mi South 16.1 mph 26.5 mph N/A   Clear
10:15 PM 66.2 °F - 55.4 °F 68% 29.86 in 10.0 mi South 12.7 mph 21.9 mph N/A   Clear
10:35 PM 64.4 °F - 55.4 °F 73% 29.86 in 10.0 mi South 11.5 mph - N/A   Clear
10:55 PM 64.4 °F - 55.4 °F 73% 29.87 in 10.0 mi South 10.4 mph - N/A   Clear
11:15 PM 64.4 °F - 55.4 °F 73% 29.87 in 10.0 mi South 15.0 mph 20.7 mph N/A   Partly Cloudy
11:35 PM 64.4 °F - 55.4 °F 73% 29.87 in 10.0 mi South 10.4 mph 18.4 mph N/A   Mostly Cloudy
11:55 PM 62.6 °F - 55.4 °F 77% 29.87 in 10.0 mi South 11.5 mph - N/A   Mostly Cloudy